FENGYUN 2G 1 40367U 14090A 21065.86473390 -.00000317 00000-0 00000+0 0 9999 2 40367 0.7790 93.0789 0003227 312.9841 169.5459 1.00263449 22702 CZ-3A R/B 1 40368U 14090B 21064.54308461 .00000272 00000-0 62361-3 0 9991 2 40368 24.9946 20.6765 7312473 119.2493 331.1682 2.20056185 49320 FENGYUN 2G AKM 1 40369U 14090C 21064.97742802 -.00000235 00000-0 00000-0 0 9999 2 40369 2.6873 91.5518 0039912 117.5755 243.1936 0.99585572 22422 FENGYUN 2G DEB 1 43646U 14090D 21064.53702138 -.00000328 00000-0 00000-0 0 9993 2 43646 2.7109 91.2676 0154771 217.8340 141.4380 1.00310776 22353